| time (UTC) | temp F | wind direction | speed MPH | gust MPH | rain 1hr in | rain 24hr in | rain mn in | humidity % | barometer mb |
| 20260505100032 | 47 | 135 | 0.0 | 4.0 | 0.00 | 0.00 | 0.00 | 85 | 1007.0 |
| 20260505094515 | 47 | 158 | 0.0 | 2.0 | 0.00 | 0.00 | 0.00 | 85 | 1007.2 |
| 20260505093053 | 46 | 141 | 0.0 | 3.0 | 0.00 | 0.00 | 0.00 | 85 | 1007.0 |
| 20260505091551 | 46 | 180 | 0.0 | 3.0 | 0.00 | 0.00 | 0.00 | 85 | 1007.1 |
| 20260505090022 | 46 | 150 | 0.0 | 0.0 | 0.00 | 0.00 | 0.00 | 84 | 1007.2 |
| 20260505084502 | 46 | 137 | 0.0 | 0.0 | 0.00 | 0.00 | 0.00 | 83 | 1007.3 |
| 20260505083054 | 47 | 137 | 0.0 | 1.0 | 0.00 | 0.00 | 0.00 | 82 | 1007.4 |
| 20260505081521 | 47 | 148 | 0.0 | 2.0 | 0.00 | 0.00 | 0.00 | 81 | 1007.4 |
| 20260505080058 | 48 | 158 | 0.0 | 0.0 | 0.00 | 0.00 | 0.00 | 79 | 1007.6 |
| 20260505074527 | 48 | 170 | 0.0 | 0.0 | 0.00 | 0.00 | 0.00 | 78 | 1007.5 |
| 20260505073103 | 49 | 147 | 0.0 | 2.0 | 0.00 | 0.00 | 0.00 | 77 | 1007.5 |
| 20260505071541 | 49 | 146 | 0.0 | 0.0 | 0.00 | 0.00 | 0.00 | 76 | 1007.5 |
| 20260505070018 | 50 | 146 | 0.0 | 3.0 | 0.00 | 0.00 | 0.00 | 74 | 1007.5 |
| 20260505064639 | 51 | 161 | 0.0 | 4.0 | 0.00 | 0.00 | 0.00 | 71 | 1007.3 |
| 20260505063039 | 53 | 151 | 0.0 | 3.0 | 0.00 | 0.00 | 0.00 | 67 | 1007.2 |
| 20260505061515 | 57 | 220 | 0.0 | 5.0 | 0.00 | 0.00 | 0.00 | 59 | 1007.2 |
| 20260505060053 | 58 | 235 | 0.0 | 5.0 | 0.00 | 0.00 | 0.00 | 55 | 1007.2 |
| 20260505054544 | 58 | 254 | 2.0 | 8.0 | 0.00 | 0.00 | 0.00 | 54 | 1007.1 |
| 20260505053007 | 58 | 132 | 0.0 | 9.0 | 0.00 | 0.00 | 0.00 | 53 | 1007.2 |
| 20260505051545 | 59 | 218 | 1.0 | 7.0 | 0.00 | 0.00 | 0.00 | 52 | 1007.1 |
| 20260505041534 | 60 | 254 | 1.0 | 10.0 | 0.00 | 0.00 | 0.00 | 50 | 1006.8 |
| 20260505040011 | 60 | 190 | 0.0 | 8.0 | 0.00 | 0.00 | 0.00 | 51 | 1006.6 |
| 20260505034609 | 60 | 223 | 3.0 | 12.0 | 0.00 | 0.00 | 0.00 | 52 | 1006.5 |
| 20260505033032 | 59 | 205 | 1.0 | 8.0 | 0.00 | 0.00 | 0.00 | 53 | 1006.5 |
| 20260505031506 | 59 | 265 | 2.0 | 6.0 | 0.00 | 0.00 | 0.00 | 54 | 1006.5 |
| 20260505030049 | 59 | 252 | 1.0 | 9.0 | 0.00 | 0.00 | 0.00 | 54 | 1006.6 |
| 20260505024521 | 58 | 245 | 1.0 | 8.0 | 0.00 | 0.00 | 0.00 | 57 | 1006.6 |
| 20260505023056 | 53 | 211 | 0.0 | 9.0 | 0.00 | 0.00 | 0.00 | 67 | 1006.5 |
| 20260505021536 | 52 | 142 | 0.0 | 2.0 | 0.00 | 0.00 | 0.00 | 73 | 1006.3 |
| 20260505020014 | 52 | 153 | 0.0 | 2.0 | 0.00 | 0.00 | 0.00 | 73 | 1006.2 |
| 20260505014555 | 51 | 188 | 0.0 | 5.0 | 0.00 | 0.00 | 0.00 | 74 | 1006.1 |
| 20260505013038 | 51 | 169 | 0.0 | 3.0 | 0.00 | 0.00 | 0.00 | 74 | 1005.9 |
| 20260505011519 | 51 | 124 | 0.0 | 5.0 | 0.00 | 0.00 | 0.00 | 74 | 1005.8 |
| 20260505010008 | 51 | 197 | 1.0 | 5.0 | 0.00 | 0.00 | 0.00 | 73 | 1005.7 |
| 20260505004600 | 53 | 173 | 1.0 | 6.0 | 0.00 | 0.00 | 0.00 | 69 | 1005.4 |
| 20260505003033 | 55 | 165 | 2.0 | 5.0 | 0.00 | 0.00 | 0.00 | 63 | 1005.1 |
| 20260505001511 | 59 | 162 | 0.0 | 2.0 | 0.00 | 0.00 | 0.00 | 55 | 1004.9 |
| 20260505000109 | 63 | 117 | 1.0 | 4.0 | 0.00 | 0.00 | 0.00 | 47 | 1004.7 |
| 20260504234539 | 66 | 219 | 0.0 | 3.0 | 0.00 | 0.00 | 0.00 | 36 | 1004.3 |
| 20260504233021 | 67 | 264 | 0.0 | 2.0 | 0.00 | 0.00 | 0.00 | 35 | 1004.2 |
| 20260504231625 | 68 | 247 | 0.0 | 3.0 | 0.00 | 0.00 | 0.00 | 34 | 1003.9 |
| 20260504230037 | 68 | 286 | 1.0 | 4.0 | 0.00 | 0.00 | 0.00 | 33 | 1003.7 |
| 20260504224513 | 69 | 256 | 0.0 | 5.0 | 0.00 | 0.00 | 0.00 | 33 | 1003.6 |
| 20260504223057 | 69 | 294 | 1.0 | 7.0 | 0.00 | 0.00 | 0.00 | 32 | 1003.5 |
| 20260504221550 | 70 | 17 | 0.0 | 8.0 | 0.00 | 0.00 | 0.00 | 32 | 1003.4 |
| 20260504220015 | 71 | 236 | 1.0 | 18.0 | 0.00 | 0.00 | 0.00 | 31 | 1003.4 |
| 20260504214603 | 72 | 292 | 0.0 | 10.0 | 0.00 | 0.00 | 0.00 | 31 | 1003.4 |
| 20260504213040 | 73 | 355 | 3.0 | 12.0 | 0.00 | 0.00 | 0.00 | 29 | 1003.3 |
| 20260504211513 | 73 | 153 | 1.0 | 14.0 | 0.00 | 0.00 | 0.00 | 30 | 1003.4 |
| 20260504210053 | 73 | 232 | 0.0 | 8.0 | 0.00 | 0.00 | 0.00 | 30 | 1003.3 |
| 20260504204525 | 72 | 254 | 1.0 | 9.0 | 0.00 | 0.00 | 0.00 | 30 | 1003.3 |
| 20260504203052 | 73 | 336 | 0.0 | 12.0 | 0.00 | 0.00 | 0.00 | 31 | 1003.1 |
| 20260504201543 | 72 | 336 | 2.0 | 12.0 | 0.00 | 0.00 | 0.00 | 32 | 1003.2 |
| 20260504200015 | 71 | 296 | 1.0 | 7.0 | 0.00 | 0.00 | 0.00 | 33 | 1003.3 |
| 20260504194604 | 70 | 11 | 1.0 | 9.0 | 0.00 | 0.00 | 0.00 | 32 | 1003.4 |
| 20260504193030 | 70 | 307 | 1.0 | 8.0 | 0.00 | 0.00 | 0.00 | 34 | 1003.6 |
| 20260504191510 | 69 | 302 | 1.0 | 12.0 | 0.00 | 0.00 | 0.00 | 34 | 1003.6 |
| 20260504190047 | 66 | 265 | 0.0 | 10.0 | 0.00 | 0.00 | 0.00 | 37 | 1003.7 |
| 20260504184538 | 66 | 349 | 2.0 | 11.0 | 0.00 | 0.00 | 0.00 | 35 | 1003.8 |
| 20260504183006 | 67 | 252 | 2.0 | 14.0 | 0.00 | 0.00 | 0.00 | 33 | 1003.7 |
| 20260504181547 | 67 | 301 | 1.0 | 5.0 | 0.00 | 0.00 | 0.00 | 34 | 1003.7 |
| 20260504180036 | 67 | 282 | 5.0 | 12.0 | 0.00 | 0.00 | 0.00 | 33 | 1003.9 |
| 20260504174511 | 67 | 331 | 5.0 | 15.0 | 0.00 | 0.00 | 0.00 | 32 | 1003.6 |
| 20260504173050 | 68 | 231 | 6.0 | 16.0 | 0.00 | 0.00 | 0.00 | 31 | 1003.7 |
| 20260504171530 | 69 | 255 | 5.0 | 17.0 | 0.00 | 0.00 | 0.00 | 31 | 1003.6 |